Home   Weather   Memmingen   Past weeks

Flag for Germany Past Weather in Memmingen, Bavaria, Germany — Yesterday and Last 2 Weeks

Now
75 °F

Partly cloudy.


Feels Like: 77 °F
Forecast: 65 / 80 °F
Wind: 8 mph from Southwest

Location: Laupheim Airport

Current Time: Jun 23, 2017 at 12:29:06 am

Latest Report: Jun 22, 2017 at 11:20 pm


Visibility: N/A

Pressure: 29.98 "Hg (27.97 "Hg at 602m altitude)

Humidity: 61%

Dew Point: 61 °F

Location of MemmingenLocation

Past Weather in Memmingen — Graph

°F

Memmingen Temperature Yesterday

Maximum temperature yesterday: 90 °F (at 4:20 pm)
Minimum temperature yesterday: 61 °F (at 5:20 am)
Average temperature yesterday: 76 °F

High & Low Weather Summary for the Past Weeks

 TemperatureHumidityPressure
High90 °F (Jun 22, 4:20 pm)100% (Jun 8, 5:20 am)30.30 "Hg (Jun 8, 5:20 am)
Low39 °F (Jun 8, 5:20 am)27% (Jun 8, 6:20 pm)29.95 "Hg (Jun 9, 7:20 am)
Average67 °F64%30.11 "Hg
* Reported Jun 7 10:20 pm — Jun 22 10:20 pm, Memmingen. Weather by CustomWeather, © 2017

Note: Actual official high and low records may vary slightly from our data, if they occured in-between our weather recording intervals... More about our weather records

Advertising

Memmingen Weather History for the Previous 24 Hours

Scroll right to see more
 ConditionsComfort  
Time TempWeatherWind HumidityBarometerVisibility
10:20 pm
Thu, Jun 22
77 °FPartly cloudy.8 mph57%29.95 "HgN/A
9:20 pm77 °FBroken clouds.1 mph65%29.98 "HgN/A
8:20 pm79 °FBroken clouds.3 mph61%29.98 "HgN/A
7:20 pm84 °FThundershowers. Partly sunny.6 mph48%29.95 "HgN/A
7:15 pm84 °FThundershowers. Partly sunny.7 mph48%29.95 "HgN/A
6:20 pm86 °FPartly sunny.5 mph43%29.95 "HgN/A
5:55 pm88 °FPartly sunny.8 mph38%29.98 "HgN/A
5:20 pm88 °FPartly sunny.8 mph38%29.98 "HgN/A
5:00 pm88 °FPartly sunny.8 mph35%29.98 "HgN/A
4:20 pm90 °FScattered clouds.8 mph33%30.01 "HgN/A
3:20 pm88 °FScattered clouds.9 mph33%30.01 "HgN/A
2:20 pm88 °FScattered clouds.6 mph33%30.04 "HgN/A
1:20 pm86 °FScattered clouds.7 mph38%30.04 "HgN/A
12:20 pm84 °FScattered clouds.3 mph45%30.07 "HgN/A
11:20 am81 °FScattered clouds.5 mph62%30.07 "HgN/A
10:20 am77 °FPartly sunny.6 mph65%30.07 "HgN/A
9:20 am73 °FPartly sunny.5 mph74%30.07 "HgN/A
8:20 am68 °FScattered clouds.5 mph83%30.07 "HgN/A
7:20 am64 °FScattered clouds.2 mph94%30.07 "Hg5 mi
6:20 am61 °FFog.2 mph94%30.07 "Hg4 mi
5:20 am61 °FFog.3 mph100%30.07 "HgN/A
4:20 am63 °FFog.3 mph94%30.04 "HgN/A
3:20 am63 °FFog.2 mph100%30.07 "Hg4 mi
2:20 am63 °FPassing clouds.5 mph100%30.07 "HgN/A
1:20 am64 °FPassing clouds.2 mph94%30.07 "HgN/A
12:20 am64 °FPassing clouds.2 mph94%30.07 "HgN/A
Weather by CustomWeather, © 2017

See weather overviewHow to use our weather pages